BAW2 EBBR-GMMN

Flight info

Callsign BAW2
Flight time 0h 57m
Altitude 50000
Route CMB DCT SULEX DCT PERON DCT NURMO DCT VENOR DCT VELIN DCT OBLOC DCT ENSAC DCT BEGUY DCT GOMSO DCT PPN DCT NOLSA DCT ALEPO DCT VASUM DCT GARVU DCT BANEV DCT BAN DCT GOTOR DCT KAMPO DCT MONTO DCT MOLIN DCT VJF DCT XULIM DCT KORIS DCT VAGNO DCT ROMSO DCT TOLSI
Aircraft B744/H-SDE3FGHIM1M2RWXY/LB1

Departure

Time 2026-05-05 11:07
Airport Brussels Airport (EBBR)

Arrival

Time 2026-05-05 12:05
Airport Mohammed V International Airport (GMMN)
Time Latitude Longitude Altitude Speed Heading
2026-05-05 10:59 50.89686 4.46437 138 ft 0 kts 208°
2026-05-05 11:04 50.89684 4.46437 138 ft 0 kts 203°
2026-05-05 11:04 50.89682 4.46438 138 ft 1 kts 194°
2026-05-05 11:04 50.89659 4.46449 138 ft 7 kts 169°
2026-05-05 11:05 50.89606 4.46385 138 ft 13 kts 238°
2026-05-05 11:05 50.89578 4.46203 139 ft 21 kts 272°
2026-05-05 11:05 50.89636 4.45947 139 ft 29 kts 295°
2026-05-05 11:05 50.89746 4.45704 140 ft 28 kts 332°
2026-05-05 11:06 50.89822 4.45674 143 ft 1 kts 352°
2026-05-05 11:06 50.89859 4.45671 143 ft 10 kts 359°
2026-05-05 11:06 50.89884 4.45677 142 ft 6 kts
2026-05-05 11:06 50.89935 4.45735 140 ft 7 kts 57°
2026-05-05 11:07 50.90063 4.46135 130 ft 84 kts 65°
2026-05-05 11:07 50.90436 4.47427 120 ft 172 kts 65°
2026-05-05 11:07 50.91044 4.49506 451 ft 234 kts 62°
2026-05-05 11:07 50.91887 4.51940 1547 ft 267 kts 54°
2026-05-05 11:08 50.93143 4.54130 3260 ft 273 kts 36°
2026-05-05 11:08 50.94825 4.55856 4581 ft 298 kts 45°
2026-05-05 11:08 50.95841 4.58717 5829 ft 313 kts 79°
2026-05-05 11:08 50.95733 4.62155 7438 ft 316 kts 109°
2026-05-05 11:09 50.94543 4.64998 9384 ft 307 kts 143°
2026-05-05 11:09 50.92694 4.66351 11403 ft 285 kts 178°
2026-05-05 11:09 50.90832 4.65847 13270 ft 268 kts 207°
2026-05-05 11:09 50.89150 4.64187 13678 ft 307 kts 221°
2026-05-05 11:10 50.87418 4.61763 13498 ft 359 kts 220°
2026-05-05 11:10 50.85404 4.58979 13295 ft 409 kts 220°
2026-05-05 11:10 50.83123 4.55880 13177 ft 455 kts 219°
2026-05-05 11:10 50.80615 4.52474 13099 ft 496 kts 220°
2026-05-05 11:11 50.77891 4.48785 13037 ft 531 kts 220°
2026-05-05 11:11 50.75047 4.44950 12994 ft 543 kts 220°
2026-05-05 11:11 50.72187 4.41026 13455 ft 540 kts 221°
2026-05-05 11:11 50.69524 4.37002 14222 ft 533 kts 225°
2026-05-05 11:12 50.67012 4.32747 14946 ft 527 kts 228°
2026-05-05 11:12 50.64721 4.28338 15677 ft 511 kts 232°
2026-05-05 11:12 50.62681 4.23890 16349 ft 490 kts 234°
2026-05-05 11:12 50.60757 4.19586 17019 ft 472 kts 233°
2026-05-05 11:13 50.58904 4.15434 17684 ft 453 kts 233°
2026-05-05 11:13 50.57235 4.11672 19771 ft 387 kts 233°
2026-05-05 11:13 50.55816 4.08444 21871 ft 332 kts 233°
2026-05-05 11:13 50.54577 4.05605 23504 ft 305 kts 233°
2026-05-05 11:14 50.53393 4.02885 24726 ft 299 kts 233°
2026-05-05 11:14 50.52228 4.00213 25864 ft 294 kts 233°
2026-05-05 11:14 50.51079 3.97580 26983 ft 290 kts 233°
2026-05-05 11:14 50.49942 3.94979 28043 ft 287 kts 232°
2026-05-05 11:15 50.48825 3.92423 29033 ft 282 kts 232°
2026-05-05 11:15 50.47713 3.89887 29961 ft 281 kts 232°
2026-05-05 11:15 50.46604 3.87364 30704 ft 279 kts 232°
2026-05-05 11:15 50.45503 3.84862 31401 ft 278 kts 232°
2026-05-05 11:16 50.44405 3.82371 32087 ft 277 kts 232°
2026-05-05 11:16 50.43310 3.79892 32734 ft 276 kts 231°
2026-05-05 11:16 50.42219 3.77428 33330 ft 275 kts 231°
2026-05-05 11:16 50.41142 3.74998 33894 ft 275 kts 231°
2026-05-05 11:17 50.40063 3.72576 34434 ft 261 kts 231°
2026-05-05 11:17 50.39052 3.70293 34585 ft 253 kts 231°
2026-05-05 11:17 50.37996 3.67933 33880 ft 278 kts 231°
2026-05-05 11:17 50.36848 3.65402 33598 ft 284 kts 231°
2026-05-05 11:18 50.35761 3.62995 34227 ft 257 kts 230°
2026-05-05 11:18 50.34735 3.60723 34501 ft 263 kts 230°
2026-05-05 11:18 50.33549 3.58136 32952 ft 330 kts 231°
2026-05-05 11:18 50.32047 3.54912 32111 ft 381 kts 231°
2026-05-05 11:19 50.30418 3.51521 32480 ft 411 kts 229°
2026-05-05 11:19 50.28532 3.47783 31998 ft 464 kts 227°
2026-05-05 11:19 50.26270 3.43799 31451 ft 517 kts 224°
2026-05-05 11:19 50.23688 3.39648 30826 ft 562 kts 223°
2026-05-05 11:20 50.20903 3.35288 30158 ft 568 kts 223°
2026-05-05 11:20 50.18094 3.30930 29410 ft 570 kts 223°
2026-05-05 11:20 50.15301 3.26613 28653 ft 574 kts 223°
2026-05-05 11:20 50.12455 3.22223 27907 ft 577 kts 222°
2026-05-05 11:21 50.09534 3.17782 27232 ft 599 kts 223°
2026-05-05 11:21 50.06480 3.13169 26625 ft 624 kts 223°
2026-05-05 11:21 50.03306 3.08365 26026 ft 645 kts 223°
2026-05-05 11:21 50.00071 3.03411 25581 ft 660 kts 224°
2026-05-05 11:22 49.96784 2.98313 25179 ft 674 kts 224°
2026-05-05 11:22 49.93466 2.93114 25195 ft 679 kts 224°
2026-05-05 11:22 49.90143 2.87904 25682 ft 678 kts 224°
2026-05-05 11:22 49.86808 2.82709 25976 ft 679 kts 223°
2026-05-05 11:23 49.83479 2.77515 26265 ft 681 kts 224°
2026-05-05 11:23 49.80145 2.72266 26553 ft 683 kts 224°
2026-05-05 11:23 49.76828 2.66992 26847 ft 686 kts 225°
2026-05-05 11:23 49.73555 2.61736 27128 ft 688 kts 225°
2026-05-05 11:24 49.70200 2.56431 27416 ft 689 kts 221°
2026-05-05 11:24 49.66491 2.51771 27682 ft 690 kts 213°
2026-05-05 11:24 49.62383 2.47949 27973 ft 691 kts 208°
2026-05-05 11:24 49.58089 2.44565 28252 ft 693 kts 204°
2026-05-05 11:25 49.53673 2.41569 28522 ft 695 kts 201°
2026-05-05 11:25 49.49138 2.38949 28792 ft 697 kts 198°
2026-05-05 11:25 49.44501 2.36708 29061 ft 699 kts 195°
2026-05-05 11:25 49.39791 2.34860 29326 ft 701 kts 192°
2026-05-05 11:26 49.34998 2.33399 29601 ft 702 kts 189°
2026-05-05 11:26 49.30143 2.32351 29860 ft 704 kts 185°
2026-05-05 11:26 49.26115 2.31805 30045 ft 705 kts 184°
2026-05-05 11:26 49.21237 2.30822 30245 ft 707 kts 192°
2026-05-05 11:27 49.16539 2.29048 32050 ft 669 kts 194°
2026-05-05 11:27 49.12354 2.27113 36776 ft 606 kts 198°
2026-05-05 11:27 49.09079 2.25412 40838 ft 559 kts 199°
2026-05-05 11:27 49.05603 2.23533 44516 ft 518 kts 198°
2026-05-05 11:28 49.02234 2.21840 46057 ft 505 kts 199°
2026-05-05 11:28 48.95583 2.18154 44872 ft 516 kts 201°
2026-05-05 11:28 48.92199 2.16217 43575 ft 521 kts 201°
2026-05-05 11:29 48.88830 2.14244 42998 ft 512 kts 201°
2026-05-05 11:29 48.85489 2.12245 43047 ft 524 kts 202°
2026-05-05 11:29 48.82043 2.10138 43112 ft 544 kts 202°
2026-05-05 11:30 48.74931 2.05660 43147 ft 558 kts 203°
2026-05-05 11:30 48.67810 2.01009 43136 ft 562 kts 204°
2026-05-05 11:31 48.60656 1.96170 43139 ft 564 kts 205°
2026-05-05 11:31 48.53525 1.91180 43139 ft 567 kts 205°
2026-05-05 11:32 48.46370 1.86010 43166 ft 572 kts 206°
2026-05-05 11:32 48.39142 1.80620 43213 ft 590 kts 207°
2026-05-05 11:32 48.35440 1.77796 43190 ft 605 kts 207°
2026-05-05 11:33 48.31651 1.74864 43176 ft 618 kts 207°
2026-05-05 11:33 48.27799 1.71842 43171 ft 631 kts 208°
2026-05-05 11:33 48.23882 1.68726 43201 ft 644 kts 208°
2026-05-05 11:33 48.19893 1.65510 43240 ft 656 kts 208°
2026-05-05 11:34 48.15843 1.62203 43249 ft 669 kts 209°
2026-05-05 11:34 48.11787 1.58849 43254 ft 681 kts 209°
2026-05-05 11:34 48.07619 1.55362 43270 ft 693 kts 210°
2026-05-05 11:34 48.03388 1.51780 43271 ft 704 kts 210°
2026-05-05 11:35 47.99097 1.48105 43268 ft 716 kts 210°
2026-05-05 11:35 47.90352 1.40546 43264 ft 737 kts 210°
2026-05-05 11:36 47.81337 1.32788 43285 ft 757 kts 211°
2026-05-05 11:36 47.72158 1.24707 43352 ft 776 kts 210°
2026-05-05 11:37 47.62656 1.16715 43360 ft 793 kts 209°
2026-05-05 11:37 47.52977 1.08627 43373 ft 812 kts 210°
2026-05-05 11:38 47.43064 1.00224 43398 ft 834 kts 211°
2026-05-05 11:38 47.38010 0.95840 43412 ft 847 kts 211°
2026-05-05 11:38 47.32903 0.91352 43426 ft 862 kts 211°
2026-05-05 11:38 47.27714 0.86763 43430 ft 879 kts 211°
2026-05-05 11:39 47.22423 0.82048 43478 ft 898 kts 211°
2026-05-05 11:39 47.16995 0.77263 43518 ft 919 kts 208°
2026-05-05 11:39 47.11194 0.73038 43573 ft 940 kts 204°
2026-05-05 11:39 47.05122 0.69157 43561 ft 964 kts 204°
2026-05-05 11:40 46.98913 0.65126 43543 ft 988 kts 204°
2026-05-05 11:40 46.92649 0.60996 43550 ft 1011 kts 205°
2026-05-05 11:40 46.86233 0.56792 43731 ft 1005 kts 203°
2026-05-05 11:40 46.79893 0.52851 43777 ft 976 kts 203°
2026-05-05 11:41 46.73698 0.48988 43646 ft 957 kts 203°
2026-05-05 11:41 46.67606 0.45320 43638 ft 937 kts 202°
2026-05-05 11:41 46.61646 0.41741 43592 ft 917 kts 203°
2026-05-05 11:41 46.55820 0.38221 43571 ft 896 kts 203°
2026-05-05 11:42 46.50147 0.34770 43568 ft 874 kts 203°
2026-05-05 11:42 46.44618 0.31376 43572 ft 851 kts 204°
2026-05-05 11:42 46.39250 0.28049 43570 ft 828 kts 204°
2026-05-05 11:42 46.34034 0.24783 43576 ft 805 kts 204°
2026-05-05 11:43 46.28963 0.21627 43581 ft 782 kts 203°
2026-05-05 11:43 46.24012 0.18649 43586 ft 761 kts 202°
2026-05-05 11:43 46.19101 0.15857 43614 ft 761 kts 197°
2026-05-05 11:44 46.08892 0.12027 43659 ft 775 kts 185°
2026-05-05 11:44 45.99894 0.10934 43651 ft 787 kts 186°
2026-05-05 11:45 45.88873 0.09447 43641 ft 800 kts 186°
2026-05-05 11:45 45.77700 0.07783 43644 ft 815 kts 187°
2026-05-05 11:46 45.66297 0.05936 43646 ft 833 kts 187°
2026-05-05 11:46 45.60512 0.04945 43640 ft 844 kts 188°
2026-05-05 11:46 45.54639 0.03903 43646 ft 856 kts 188°
2026-05-05 11:46 45.48690 0.02811 43641 ft 870 kts 188°
2026-05-05 11:47 45.42634 0.01664 43634 ft 886 kts 188°
2026-05-05 11:47 45.36544 0.00476 43639 ft 903 kts 189°
2026-05-05 11:47 45.30258 -0.00787 43642 ft 923 kts 189°
2026-05-05 11:47 45.23833 -0.02115 43641 ft 944 kts 189°
2026-05-05 11:48 45.10611 -0.04953 43620 ft 958 kts 189°
2026-05-05 11:48 44.97583 -0.07876 43618 ft 938 kts 190°
2026-05-05 11:49 44.85292 -0.10756 43633 ft 918 kts 190°
2026-05-05 11:49 44.79048 -0.12321 43631 ft 907 kts 192°
2026-05-05 11:49 44.72934 -0.14309 43651 ft 895 kts 195°
2026-05-05 11:50 44.66932 -0.16408 43659 ft 883 kts 195°
2026-05-05 11:50 44.61134 -0.19011 43745 ft 867 kts 206°
2026-05-05 11:50 44.55728 -0.22585 43850 ft 853 kts 207°
2026-05-05 11:50 44.50415 -0.26183 43716 ft 842 kts 207°
2026-05-05 11:51 44.45198 -0.29771 43662 ft 830 kts 207°
2026-05-05 11:51 44.40136 -0.33302 43661 ft 816 kts 207°
2026-05-05 11:51 44.35113 -0.36849 43659 ft 803 kts 208°
2026-05-05 11:51 44.30238 -0.40506 43692 ft 787 kts 212°
2026-05-05 11:52 44.25561 -0.44547 43714 ft 773 kts 213°
2026-05-05 11:52 44.21238 -0.48720 43779 ft 759 kts 218°
2026-05-05 11:52 44.12929 -0.57954 43711 ft 771 kts 220°
2026-05-05 11:53 44.04421 -0.67226 43765 ft 784 kts 214°
2026-05-05 11:53 43.95061 -0.75259 43707 ft 798 kts 211°
2026-05-05 11:54 43.85421 -0.83232 43706 ft 814 kts 212°
2026-05-05 11:54 43.75598 -0.91413 43713 ft 834 kts 212°
2026-05-05 11:55 43.70621 -0.95647 43711 ft 846 kts 213°
2026-05-05 11:55 43.65586 -0.99981 43704 ft 859 kts 213°
2026-05-05 11:55 43.60489 -1.04418 43703 ft 874 kts 213°
2026-05-05 11:55 43.55321 -1.08957 43683 ft 883 kts 213°
2026-05-05 11:56 43.44861 -1.18025 43712 ft 896 kts 213°
2026-05-05 11:56 43.34281 -1.27168 43744 ft 912 kts 213°
2026-05-05 11:57 43.23501 -1.36686 43764 ft 931 kts 214°
2026-05-05 11:57 43.12404 -1.46069 43789 ft 937 kts 207°
2026-05-05 11:58 43.00936 -1.54287 43733 ft 921 kts 209°
2026-05-05 11:58 42.89698 -1.62412 43697 ft 906 kts 210°
2026-05-05 11:59 42.78722 -1.70525 43674 ft 889 kts 210°
2026-05-05 11:59 42.68071 -1.78539 43663 ft 870 kts 210°
2026-05-05 12:00 42.57578 -1.86394 43636 ft 853 kts 207°
2026-05-05 12:00 42.52262 -1.90124 43611 ft 866 kts 209°
2026-05-05 12:00 42.46866 -1.93951 43625 ft 882 kts 209°
2026-05-05 12:01 42.41242 -1.97479 43670 ft 902 kts 199°
2026-05-05 12:01 42.35184 -2.00006 43679 ft 923 kts 198°
2026-05-05 12:01 42.28985 -2.02603 43323 ft 939 kts 200°
2026-05-05 12:01 42.22763 -2.05424 43258 ft 943 kts 201°
2026-05-05 12:02 42.16596 -2.08301 43244 ft 932 kts 201°
2026-05-05 12:02 42.10522 -2.11243 43234 ft 921 kts 202°
2026-05-05 12:02 42.04645 -2.14277 43236 ft 908 kts 204°
2026-05-05 12:02 41.98831 -2.17432 43229 ft 896 kts 204°
2026-05-05 12:03 41.93095 -2.20583 43223 ft 884 kts 204°
2026-05-05 12:03 41.87455 -2.23705 43203 ft 871 kts 204°
2026-05-05 12:03 33.45224 -7.61692 2068 ft 176 kts 164°
2026-05-05 12:03 33.44357 -7.61461 1989 ft 193 kts 168°
2026-05-05 12:04 33.42930 -7.61123 2000 ft 223 kts 163°
2026-05-05 12:04 33.41399 -7.60596 1659 ft 233 kts 154°
2026-05-05 12:04 33.39837 -7.59848 895 ft 238 kts 159°
2026-05-05 12:04 33.38354 -7.59265 734 ft 218 kts 166°
2026-05-05 12:05 33.37002 -7.58873 659 ft 156 kts 160°
2026-05-05 12:05 33.36326 -7.58647 664 ft 49 kts 164°
2026-05-05 12:05 33.36173 -7.58538 663 ft 12 kts 93°